Tracking 29892 objects as of 21-Nov-2024
HD Live streaming from Space Station
objects crossing your sky now

ONEWEB-0545

Track ONEWEB-0545 now!
10-day predictions
ONEWEB-0545 is classified as:


NORAD ID: 54647
Int'l Code: 2022-166F
Perigee: 1,183.1 km
Apogee: 1,186.7 km
Inclination: 87.9 °
Period: 108.9 minutes
Semi major axis: 7555 km
RCS: Unknown
Launch date: December 8, 2022
Source: United Kingdom (UK)
Launch site: AIR FORCE EASTERN TEST RANGE (AFETR)
Your satellite tracking list
Your tracking list is empty




NASA's NSSDC Master Catalog

Two Line Element Set (TLE):
1 54647U 22166F   24325.48723709  .00000051  00000-0  91034-4 0  9996
2 54647  87.9308 358.2831 0002378  96.2009 263.9396 13.21826296 96181
Source of the keplerian elements: AFSPC